Flag for U.S.A. Weather past 2 weeks in San Luis Obispo, California, U.S.A.

Now
72 °F

Sunny.


Feels Like: 76 °F
Forecast: 62 / 78 °F
Wind: 15 mph from Northwest

Location: San Luis Obispo County-Mc Chesney Field

Current Time: Aug 1, 2015 at 11:57:53 AM

Latest Report: Aug 1, 2015 at 10:56 AM


Visibility: 10 mi

Pressure: 29.98 "Hg

Humidity: 61%

Dew point: 58 °F

Location of San Luis ObispoLocation

Historic Weather in San Luis Obispo — Graph

°F

San Luis Obispo temperature yesterday

Maximum temperature yesterday: 82 °F (at 12:56 PM)
Minimum temperature yesterday: 61 °F (at 3:56 AM)
Average temperature yesterday: 69 °F

Past Weeks' High & Low Weather Summary

 TemperatureHumidityPressure
High87 °F (Jul 19, 4:56 PM)97% (Jul 21, 6:56 AM)30.08 "Hg (Jul 21, 6:56 AM)
Low52 °F (Jul 18, 5:56 AM)31% (Jul 25, 11:56 AM)29.80 "Hg (Jul 17, 5:56 PM)
Average67 °F74%29.96 "Hg
* Reported Jul 17 9:56 AM — Aug 1 9:56 AM, San Luis Obispo, Weather by CustomWeather, © 2015

Note: Actual official high and low records may vary slightly from our data, if they occured in-between our weather recording intervals... More about our weather records

Advertising

San Luis Obispo weather history for previous 24 hours

 ConditionsComfort  
Time TempWeatherWind HumidityBarometerVisibility
9:56 AM
Sat, Aug 1
70 °FSunny.9 mph66%29.99 "Hg10 mi
8:56 AM67 °FScattered clouds.10 mph73%30.00 "Hg10 mi
7:56 AM65 °FOvercast.7 mph78%30.00 "Hg10 mi
6:56 AM63 °FOvercast.7 mph87%30.00 "Hg10 mi
5:56 AM62 °FOvercast.7 mph86%29.98 "Hg10 mi
4:56 AM63 °FOvercast.8 mph84%29.97 "Hg10 mi
3:56 AM63 °FOvercast.9 mph87%29.98 "Hg10 mi
2:56 AM63 °FOvercast.6 mph87%29.97 "Hg10 mi
1:56 AM63 °FOvercast.7 mph87%29.98 "Hg10 mi
12:56 AM64 °FOvercast.8 mph84%29.99 "Hg10 mi
11:56 PM
Fri, Jul 31
63 °FLow clouds.9 mph87%30.00 "Hg10 mi
10:56 PM63 °FClear.8 mph87%29.99 "Hg10 mi
9:56 PM63 °FPassing clouds.8 mph87%29.99 "Hg10 mi
8:56 PM64 °FScattered clouds.9 mph87%29.99 "Hg10 mi
7:56 PM65 °FSunny.13 mph81%29.98 "Hg10 mi
6:56 PM68 °FScattered clouds.15 mph73%29.96 "Hg10 mi
5:56 PM71 °FSunny.17 mph68%29.97 "Hg10 mi
4:56 PM75 °FSunny.18 mph60%29.98 "Hg10 mi
3:56 PM78 °FSunny.16 mph50%29.98 "Hg10 mi
2:56 PM81 °FSunny.17 mph39%29.99 "Hg10 mi
1:56 PM82 °FSunny.12 mph48%30.00 "Hg10 mi
12:56 PM82 °FSunny.7 mph49%30.00 "Hg10 mi
11:56 AM80 °FSunny.5 mph51%30.01 "Hg10 mi
Weather by CustomWeather, © 2015

See weather overviewHow to use our weather pages